Rogers, AR

4:28 PM CDT on April 25, 2018 (GMT -0500)
Rogers Municipal-Carter

Weather History for KROG - January, 2012

Change the Weather History Date:

Sunday, January 22, 2012

  Actual Average Record
Temperature  
Mean Temperature 48 °F -  
Max Temperature 60 °F 43 °F 70 °F (2009)
Min Temperature 37 °F 26 °F 14 °F (2008)
Degree Days  
Heating Degree Days 16    
Moisture  
Dew Point 43 °F    
Average Humidity 76    
Maximum Humidity 89    
Minimum Humidity 45    
Precipitation  
Precipitation 0.00 in - - ()
Sea Level Pressure  
Sea Level Pressure 29.65 in    
Wind  
Wind Speed 15 mph (South)    
Max Wind Speed 31 mph    
Max Gust Speed 41 mph    
Visibility 10 miles    
Events      
Averages and records for this station are not official NWS values.
T = Trace of Precipitation, MM = Missing Value Source: NWS Daily Summary

Daily Weather History Graph

Daily Weather History Graph

Search for Another Location

Airport or City:

Astronomy

Jan. 22, 2012 Rise Set
Actual Time 7:24 AM CST 5:31 PM CST
Civil Twilight 6:56 AM CST 5:59 PM CST
Nautical Twilight 6:25 AM CST 6:30 PM CST
Astronomical Twilight 5:54 AM CST 7:01 PM CST
Moon 6:41 AM CST (1/22) 5:13 PM CST (1/22)
Length of Visible Light 11h 02m
Length of Day
10h 07m
Waning Crescent, 0% of the Moon is Illuminated
Jan 22
Waning Crescent
Jan 23
New
Jan 30
First Quarter
Feb 7
Full
Feb 14
Last Quarter

Hourly Weather History & Observations

Time (CST) Temp. Windchill Dew Point Humidity Pressure Visibility Wind Dir Wind Speed Gust Speed Precip Events Conditions
12:57 AM 37.9 °F 32.7 °F 32.0 °F 79% 29.85 in 10.0 mi ESE 6.9 mph - N/A   Overcast
1:10 AM 37.4 °F 30.8 °F 33.8 °F 87% 29.82 in 10.0 mi ESE 9.2 mph - N/A   Overcast
1:54 AM 39.2 °F 33.0 °F 33.8 °F 81% 29.80 in 9.0 mi ESE 9.2 mph - N/A   Overcast
1:57 AM 39.0 °F 34.0 °F 35.1 °F 86% 29.82 in 9.0 mi ESE 6.9 mph - N/A   Overcast
2:57 AM 43.0 °F 36.8 °F 39.0 °F 86% 29.80 in 8.0 mi SE 11.5 mph - N/A   Overcast
4:57 AM 44.1 °F 38.1 °F 41.0 °F 89% 29.76 in 8.0 mi SSE 11.5 mph - N/A   Overcast
6:57 AM 48.0 °F - 44.1 °F 86% 29.71 in 10.0 mi South 16.1 mph - N/A   Overcast
7:57 AM 48.0 °F - 44.1 °F 86% 29.70 in 10.0 mi SSE 12.7 mph - N/A   Overcast
8:57 AM 48.9 °F - 44.1 °F 83% 29.70 in 10.0 mi South 20.7 mph 31.1 mph N/A   Overcast
9:57 AM 51.1 °F - 45.0 °F 80% 29.68 in 10.0 mi South 20.7 mph 31.1 mph N/A   Overcast
10:18 AM 51.8 °F - 46.4 °F 82% 29.67 in 10.0 mi South 19.6 mph 32.2 mph N/A   Overcast
10:57 AM 55.0 °F - 48.0 °F 77% 29.64 in 10.0 mi South 31.1 mph 38.0 mph N/A   Overcast
11:57 AM 60.1 °F - 51.1 °F 72% 29.57 in 10.0 mi South 26.5 mph 41.4 mph N/A   Overcast
1:57 PM 57.9 °F - 51.1 °F 78% 29.52 in 10.0 mi South 27.6 mph 34.5 mph N/A   Overcast
2:57 PM 59.0 °F - 51.1 °F 75% 29.50 in 10.0 mi South 31.1 mph 36.8 mph N/A   Overcast
3:57 PM 59.0 °F - 50.0 °F 72% 29.51 in 10.0 mi South 25.3 mph 36.8 mph N/A   Mostly Cloudy
4:08 PM 59.0 °F - 50.0 °F 72% 29.51 in 10.0 mi South 24.2 mph 31.1 mph N/A   Scattered Clouds
5:57 PM 57.0 °F - 51.1 °F 81% 29.52 in 10.0 mi South 19.6 mph 27.6 mph N/A   Clear
6:57 PM 57.0 °F - 51.1 °F 81% 29.51 in 10.0 mi South 16.1 mph - N/A   Clear
7:57 PM 57.9 °F - 46.9 °F 67% 29.49 in 10.0 mi SSW 18.4 mph - N/A   Overcast
8:57 PM 57.0 °F - 46.0 °F 67% 29.50 in 10.0 mi SSW 18.4 mph 24.2 mph N/A   Overcast
9:57 PM 54.0 °F - 33.1 °F 45% 29.58 in 10.0 mi West 23.0 mph 38.0 mph N/A   Mostly Cloudy
10:57 PM 46.9 °F - 30.0 °F 52% 29.66 in 10.0 mi West 19.6 mph 27.6 mph N/A   Clear
11:57 PM 42.1 °F 32.3 °F 32.0 °F 67% 29.72 in 10.0 mi West 24.2 mph 34.5 mph N/A   Scattered Clouds